Regional Weather Roundup
Issued by NWS

Home | Current Version | Previous Version | Graphics & Text | Print | Product List | Glossary On
Versions: 1 2 3 4 5 6 7 8 9 10 11 12 13 14 15 16 17 18 19 20 21 22 23 24 25 26 27 28 29 30 31 32 33 34 35 36 37 38 39 40 41 42 43 44 45 46 47 48 49 50
000
ASUS43 KLOT 161908
RWRIL

ILLINOIS REGIONAL WEATHER ROUNDUP
NATIONAL WEATHER SERVICE CHICAGO/ROMEOVILLE IL
100 PM CST SAT DEC 16 2017

NOTE: "FAIR" INDICATES FEW OR NO CLOUDS BELOW 12,000 FEET WITH NO
SIGNIFICANT WEATHER AND/OR OBSTRUCTIONS TO VISIBILITY.

* THESE STATIONS ARE NOT UNDER NWS QUALITY CONTROL. THEY ALSO MAY NOT
  REPORT WEATHER SUCH AS PRECIPITATION OR FOG.

ILZ001-002-007-009-015-016-024-162000-
NORTHWEST ILLINOIS

CITY           SKY/WX    TMP DP  RH WIND       PRES   REMARKS
MOLINE         SUNNY     50  26  39 SW7       29.85
STERLING*      SUNNY     47  26  44 VRB5      29.87F
SAVANNA*       SUNNY     46  27  47 CALM      29.86S
$$

ILZ003-004-008-010-011-017-018-162000-
NORTH CENTRAL ILLINOIS

CITY           SKY/WX    TMP DP  RH WIND       PRES   REMARKS
ROCKFORD       MOSUNNY   44  26  49 CALM      29.88F
FREEPORT*      SUNNY     40  27  59 W3        29.88F
ROCHELLE*      SUNNY     45  28  50 SW8       29.87F
DE KALB*       SUNNY     45  28  50 SW8       29.87F
PERU*          SUNNY     47  26  43 SW6       29.89F
$$

ILZ005-006-012>014-019>023-162000-
NORTHEAST ILLINOIS

CITY           SKY/WX    TMP DP  RH WIND       PRES   REMARKS
CHICAGO-OHARE  MOSUNNY   44  25  47 SW5       29.88F
CHICAGO-MIDWAY MOSUNNY   45  26  47 SW7       29.89F
AURORA         SUNNY     46  27  47 S9        29.89F
LANSING*       SUNNY     46  29  51 SW8       29.91S
JOLIET*        SUNNY     48  28  44 SW7       29.90S
WAUKEGAN       SUNNY     43  27  53 S6        29.88R
DUPAGE AIRPORT SUNNY     44  27  51 SW8       29.88S
KANKAKEE*      SUNNY     49  26  40 W10       29.92S
WHEELING       SUNNY     45  27  49 SW6       29.89F
MORRIS*        SUNNY     48  27  43 SW7       29.89S
ROMEOVILLE*    SUNNY     47  27  47 W7G17     29.89F
NORTHERLY ISL    N/A     44  24  45 SW5         N/A
$$

LMZ740>746-162000-
SOUTHERN LAKE MICHIGAN

STATION/POSITION SKY/WX   TEMP    WIND        PRES    VSBY  WAVE
                          AIR SEA DIR/SP/G                  HT/PER
                          (F)     (DEG/KT/KT) (MB)    (MI)  (FT/S)
HARRISON CRIB              43     230/  3/  4   N/A
BURNHAM HARBOR             44     250/  7/ 11   N/A
CALUMET HARBOR             44     190/  7/ 10 1011.8F
BURNS HARBOR               44     210/  7/ 12 1013.2F
MICHIGAN CITY              41     240/  6/  7   N/A
$$

ILZ025>027-034>036-040-047-049-050-058-095>099-162000-
WEST-CENTRAL ILLINOIS

CITY           SKY/WX    TMP DP  RH WIND       PRES   REMARKS
QUINCY         SUNNY     54  27  35 SW13      29.89S
GALESBURG*     SUNNY     50  29  45 SW9       29.89F
MACOMB*        SUNNY     52  27  38 SW13      29.90F
JACKSONVILLE*  SUNNY     55  27  34 SW13G21   29.91F
PITTSFIELD*    SUNNY     55  28  35 SW15      29.91F
$$

ILZ028>032-037-038-041>044-048-051>054-059>061-162000-
CENTRAL ILLINOIS

CITY           SKY/WX    TMP DP  RH WIND       PRES   REMARKS
PONTIAC        SUNNY     50  26  39 W13       29.91S
BLOOMINGTON    SUNNY     50  27  40 SW16      29.91F
DECATUR        SUNNY     52  28  39 SW18      29.93F
PEORIA         SUNNY     50  28  42 SW10      29.90F
LACON*         SUNNY     49  27  43 SW8       29.88F
LINCOLN*       SUNNY     54  30  40 SW8G16    29.91F
SPRINGFIELD    SUNNY     56  28  34 SW13G20   29.93F
TAYLORVILLE    SUNNY     54  28  37 SW15      29.94F
$$

ILZ033-039-045-046-055>057-062-063-162000-
EAST-CENTRAL ILLINOIS

CITY           SKY/WX    TMP DP  RH WIND       PRES   REMARKS
CHAMPAIGN      SUNNY     52  28  39 SW20G26   29.94F
DANVILLE*      SUNNY     49  28  44 SW16G22   29.92F
RANTOUL*       SUNNY     52  30  42 SW18      29.93F
MATTOON        SUNNY     50  30  46 SW16G28   29.95F
PARIS*         SUNNY     50  32  49 SW16      29.98F
$$

ILZ079-100>102-162000-
SOUTHWEST ILLINOIS

CITY           SKY/WX    TMP DP  RH WIND       PRES   REMARKS
ALTON          SUNNY     55  32  41 S14       29.96F
BELLEVILLE     SUNNY     58  29  33 S13       29.97F
CAHOKIA*       SUNNY     59  26  28 SW12G21   29.97F
SPARTA*        SUNNY     53  32  45 SW12G17   30.03S
$$

ILZ064>066-069>071-074>076-080>082-084>086-088>090-092>094-162000-
SOUTH-CENTRAL ILLINOIS

CITY           SKY/WX    TMP DP  RH WIND       PRES   REMARKS
CARBONDALE     SUNNY     51  31  46 SW17G26   30.05F
CAIRO*         SUNNY     51  31  46 S17G29    30.11F
EFFINGHAM*     SUNNY     54  32  43 S14G24    30.00F
MARION         MOSUNNY   52  30  43 S14G21    30.07F
MT. VERNON     SUNNY     53  31  42 SW16G24   30.03F
CENTRALIA*     SUNNY     54  32  44 S16       30.00F
SALEM*         SUNNY     55  30  38 SW15G25   30.00F
METROPOLIS*    SUNNY     52  29  40 SW12G21   30.12F
$$

ILZ067-068-072-073-078-083-087-091-162000-
SOUTHEAST ILLINOIS

CITY           SKY/WX    TMP DP  RH WIND       PRES   REMARKS
LAWRENCEVILLE  SUNNY     52  32  46 S22G29    30.03F
FLORA*         SUNNY     54  32  42 SW15      30.01F
FAIRFIELD*     SUNNY     53  30  42 SW12G20   30.03F
HARRISBURG*    SUNNY     52  32  46 S17G23    30.07F
ROBINSON*      SUNNY     52  32  46 S16       30.02F
CARMI*         SUNNY     52  31  44 SW18      30.06F
$$

ABBREVIATIONS USED IN REMARKS
   TC - TEMPERATURE IN CELSIUS
  WCI - WIND CHILL INDEX
   HX - HEAT INDEX
  VSB - VISIBILITY
$$





USA.gov is the U.S. government's official web portal to all federal, state and local government web resources and services.